Location: Vancouver
(49.2500°N, 123.1330°W)
Time: 22:24:40
(UTC-08:00)

ISS - Visible Passes

Search period start: 11 December 2017 00:00
Search period end: 21 December 2017 00:00
Orbit: 403 x 407 km, 51.6° (Epoch: 12 December)

Date Brightness Start Highest point End Pass type
(mag) Time Alt. Az. Time Alt. Az. Time Alt. Az.
11 Dec -3.7 16:52:03 10° WNW 16:55:20 58° N 16:58:34 10° E visible
11 Dec -3.2 18:28:36 10° WNW 18:31:50 53° SSW 18:31:51 53° SSW visible
12 Dec -3.8 17:36:22 10° WNW 17:39:40 79° SSW 17:42:09 16° ESE visible
12 Dec -0.9 19:13:25 10° W 19:14:51 16° WSW 19:14:51 16° WSW visible
13 Dec -1.9 18:20:50 10° W 18:23:43 29° SW 18:25:20 19° S visible
14 Dec -2.7 17:28:26 10° WNW 17:31:37 45° SSW 17:34:46 10° SE visible
15 Dec -0.8 18:13:26 10° W 18:15:27 15° SW 18:17:27 10° S visible
16 Dec -1.3 17:20:40 10° W 17:23:24 24° SW 17:26:07 10° SSE visible
18 Dec -0.4 17:13:27 10° WSW 17:15:01 13° SW 17:16:34 10° SSW visible
